Location: Cabanac
(43.2707°N, 0.2288°E)
Time: 14:10:37
(UTC+00:00)

Daily predictions for brighter satellites

Satellite Brightness Start Highest point End
(mag) Time Altitude Azimuth Time Altitude Azimuth Time Altitude Azimuth
BREEZE-M DEB (TANK) 3.4 19:10:47 10° W 19:13:56 66° NNW 19:23:26 10° ENE
SAR-Lupe-4 3.5 19:16:03 10° NNE 19:19:40 83° ESE 19:23:14 10° SSW
FALCON 9 DEB 3.7 19:18:12 10° SSW 19:20:52 28° SE 19:23:33 10° ENE
Cosmos 389 Rocket 3.8 19:18:58 10° SE 19:21:44 22° E 19:24:31 10° NE
CZ-2C R/B 3.1 19:17:00 10° N 19:22:11 68° WNW 19:27:26 10° SSW
Cosmos 2098 Rocket 4.4 19:15:12 10° N 19:22:33 78° E 19:29:51 10° SSE
Cosmos 2322 4.0 19:18:04 10° NNW 19:23:43 71° WSW 19:29:20 10° SSE
CSL-04 Rocket 3.8 19:18:48 10° SSE 19:24:05 80° WSW 19:29:24 10° NNW
Ariane Rocket 3.7 19:19:48 10° SE 19:24:20 35° ENE 19:28:54 10° N
ERS-2 2.0 19:20:44 10° NNE 19:24:23 81° E 19:28:01 10° SSW
Nadezhda 4 Rocket 4.4 19:18:24 10° NNW 19:24:40 69° W 19:30:49 10° S
Cosmos 614 Rocket 4.2 19:20:00 10° S 19:24:55 47° ESE 19:29:48 10° NNE
COSMOS 2487 4.4 19:23:22 10° SW 19:26:30 35° WNW 19:29:40 10° N
Cosmos 2251 Rocket 3.5 19:21:18 10° S 19:26:37 69° ESE 19:31:56 10° NNE
ATLAS 3B R/B 2.9 19:23:55 10° NW 19:31:00 82° NE 19:38:22 10° SE
Cosmos 2279 Rocket 4.4 19:26:12 10° SSE 19:31:54 41° E 19:37:37 10° NNE
Cosmos 1980 4.2 19:33:44 10° NNW 19:39:10 44° ENE 19:44:12 12° SE
Cosmos 2360 Rocket 4.4 19:34:45 10° NW 19:39:14 25° WSW 19:43:42 10° SSW
SL-16 R/B 3.9 19:35:30 10° N 19:39:18 18° NE 19:43:04 10° E
Cosmos 2026 Rocket 3.9 19:34:03 10° N 19:40:09 76° E 19:46:18 10° SSE
SME Rocket 3.9 19:37:30 10° N 19:41:32 64° WNW 19:46:57 10° SSW
Cosmos 2151 4.4 19:38:13 10° NNE 19:41:34 22° ENE 19:44:10 13° ESE
FALCON 9 DEB 3.3 19:39:45 10° SSW 19:42:37 38° SE 19:45:31 10° ENE
Cosmos 1992 Rocket 4.5 19:39:54 10° NNW 19:45:03 62° WSW 19:50:11 10° S
Cosmos 1455 2.7 19:42:09 10° SSW 19:45:50 61° W 19:49:32 10° N
COSMOS 2455 4.0 19:42:29 10° SSE 19:46:40 20° ESE 19:50:51 10° ENE
SL-4 R/B 2.4 19:45:21 10° SSW 19:49:26 47° SE 19:53:51 10° ENE
IRS-1A Rocket 4.4 19:44:26 10° SSE 19:49:56 64° ENE 19:55:36 10° N
USA 186 2.6 19:49:37 10° S 19:52:50 51° W 19:55:56 10° NNW
CZ-4 R/B 4.4 19:50:23 10° SW 19:52:51 15° W 19:55:20 10° NW
BREEZE M DEB (TANK) 4.2 19:50:24 10° S 19:53:15 27° ESE 19:59:21 10° ENE
Cosmos 2219 Rocket 3.1 19:48:24 10° NW 19:53:52 50° WSW 19:59:18 10° S
BREEZE-M DEB (TANK) 3.6 19:52:28 10° W 19:54:33 23° SSW 19:57:32 11° SSE
OBJECT-B 1.0 19:54:21 10° S 19:57:33 73° WSW 20:00:48 10° NNW
Cosmos 1076 Rocket 3.6 19:53:42 10° N 19:58:00 58° E 20:01:45 13° SSE
COSMOS 2428 3.4 19:52:33 10° NNW 19:58:09 55° WSW 20:03:43 10° S
ATLAS 5 CENTAUR R/B 1.5 19:57:16 10° NW 19:59:05 43° SW 20:01:00 16° SSE
Meteor 2-1 Rocket 4.4 19:54:02 10° SSW 19:59:52 83° W 20:05:51 10° N
Cosmos 1634 Rocket 4.2 19:55:40 10° SSW 20:01:55 75° W 20:08:11 10° N
Cosmos 2344 3.9 19:56:29 10° SW 20:03:58 71° NW 20:11:51 10° NE
Cosmos 2292 Rocket 4.2 19:58:19 10° N 20:04:35 63° ENE 20:08:34 14° SSE
Cosmos 407 Rocket 3.5 20:00:26 10° S 20:05:27 59° ESE 20:10:32 10° NNE
ARIANE 5 R/B 4.4 20:04:04 14° E 20:05:33 16° ENE 20:08:12 10° NNE
SL-8 R/B 4.4 20:01:09 10° WNW 20:05:45 45° SW 20:09:04 18° SSE
Cosmos 1356 3.3 20:02:25 10° N 20:05:51 89° WSW 20:08:40 14° S
IRIDIUM 104 4.3 20:04:40 10° S 20:09:48 63° E 20:14:58 10° N
Cosmos 1023 Rocket 4.4 20:05:33 10° S 20:10:31 59° ESE 20:15:31 10° NNE
Meteor 2-3 Rocket 4.2 20:09:01 10° N 20:14:30 44° ENE 20:17:47 22° SE
Cosmos 44 Rocket 4.2 20:12:40 10° S 20:16:57 29° ESE 20:21:21 10° NE
Cosmos 405 Rocket 3.2 20:14:06 10° NNW 20:18:03 63° W 20:21:35 12° S
Cosmos 1140 Rocket 3.4 20:13:38 10° S 20:18:42 68° ESE 20:23:48 10° NNE
IRIDIUM 114 4.2 20:13:44 10° S 20:18:56 77° E 20:24:10 10° N
NOSS 0 Rocket 4.2 20:13:02 10° NNW 20:19:14 69° WSW 20:24:39 14° SSE
Cosmos 1812 Rocket 3.5 20:16:18 10° S 20:20:44 84° E 20:25:13 10° N
Cosmos 1954 Rocket 4.4 20:19:29 17° SSE 20:22:53 38° ESE 20:27:39 10° NE
Timation 2 Rocket 4.0 20:19:00 10° SSW 20:25:33 68° ESE 20:31:50 10° NNE
CZ-2C R/B 4.0 20:21:48 10° NNE 20:26:00 41° E 20:27:43 28° SSE
Cosmos 2237 Rocket 2.2 20:21:25 10° NNW 20:27:05 86° WSW 20:30:48 22° SSE
IRIDIUM 103 4.3 20:22:52 10° S 20:28:05 88° W 20:33:20 10° N
Cosmos 2180 Rocket 4.4 20:22:07 10° S 20:28:17 86° E 20:34:27 10° N
Abrixas rocket 3.9 20:27:49 10° NW 20:28:20 12° NNW 20:28:20 12° NNW
Meteor 2-21 4.4 20:23:31 10° N 20:29:36 78° E 20:34:06 19° SSE
Cosmos 1825 4.4 20:27:09 10° NW 20:30:14 24° W 20:33:19 10° SW
BREEZE M DEB (TANK) 3.5 20:24:07 10° WSW 20:33:42 61° NNW 20:36:34 12° NE
Spot 2 Rocket 4.3 20:32:07 27° ESE 20:33:49 35° ENE 20:38:23 10° N
Cosmos 1766 Rocket 4.3 20:31:49 10° N 20:35:45 33° ENE 20:36:22 31° E
FALCON 9 DEB 3.4 20:36:44 10° WSW 20:39:45 57° NNW 20:41:38 20° NE
Cosmos 2227 Rocket 2.1 20:34:40 10° SSW 20:40:20 86° ESE 20:46:02 10° NNE
Cosmos 2082 3.9 20:37:15 22° SSE 20:40:33 45° ESE 20:45:53 10° NE
Cosmos 1633 2.6 20:38:31 10° NNW 20:42:06 72° W 20:43:19 38° S
FALCON 9 DEB 4.0 20:41:30 10° WSW 20:44:24 43° NNW 20:46:28 17° NE
Okean 3 Rocket 4.1 20:40:40 10° N 20:44:59 42° ENE 20:45:39 39° E
Lacrosse 5 rocket 4.0 20:43:58 10° NNW 20:46:20 14° NNE 20:48:44 10° NE
Cosmos 1655 Rocket 4.0 20:40:31 10° N 20:46:49 90° WSW 20:50:54 23° S
Cosmos 2297 Rocket 2.5 20:41:25 10° SW 20:47:01 67° WNW 20:52:41 10° NNE
Cosmos 1869 3.6 20:47:58 46° E 20:47:58 46° E 20:51:40 10° NNE
Resurs 01 Rocket 1.8 20:46:10 28° S 20:48:26 70° WSW 20:52:54 10° NNW
Meteor 1-4 Rocket 3.5 20:50:30 33° NE 20:50:30 33° NE 20:52:53 10° NNE
Genesis I 3.2 20:47:46 10° NW 20:51:48 78° SW 20:52:33 56° SSE
Cosmos 2219 3.6 20:50:45 10° SW 20:56:18 62° WNW 21:01:54 10° NNE
Cosmos 2084 Rocket 4.2 20:55:48 10° SW 20:59:39 49° NW 21:03:36 10° NNE
Cosmos 1763 Rocket 4.0 20:58:49 10° N 21:03:36 40° ENE 21:04:17 38° E
Terra 2.9 21:03:52 28° ENE 21:04:02 28° ENE 21:08:05 10° N
Meteor 2-8 Rocket 4.3 21:02:57 33° S 21:05:47 71° E 21:11:53 10° NNE
BREEZE-M DEB (TANK) 3.4 21:07:25 10° WNW 21:08:46 34° NW 21:08:46 34° NW
MINOTAUR IV R/B 4.5 21:08:49 10° NNW 21:13:22 83° WSW 21:13:52 69° S
SPOT 5 3.1 21:14:08 48° ENE 21:14:15 48° ENE 21:18:52 10° N
Cosmos-2242 4.0 21:12:34 19° SW 21:15:23 44° WNW 21:19:31 10° N
SPOT 1/Viking Rocket 3.6 21:14:17 46° S 21:15:50 78° WSW 21:21:06 10° NNW
Meteor 2-2 Rocket 4.5 21:15:41 47° ESE 21:15:59 47° E 21:21:26 10° NNE
NOSS 3-1 (C) 4.4 21:09:35 10° NNW 21:16:51 53° NE 21:20:23 34° ESE
Cosmos 676 Rocket 4.3 21:17:21 15° SSW 21:21:37 66° WNW 21:26:47 10° NNE
USA 215 3.4 21:21:35 39° ESE 21:24:05 67° NE 21:30:34 10° NW
SL-16 R/B 2.1 21:18:28 10° NNW 21:24:11 85° WSW 21:25:19 59° SSE
SL-4 R/B 3.3 21:24:53 10° W 21:29:11 46° NNW 21:33:32 11° NE
COSMOS 2455 3.0 21:25:58 10° SW 21:31:58 70° WNW 21:38:00 10° NNE
ERS-1 Rocket 2.8 21:33:53 78° ESE 21:34:04 80° ENE 21:39:06 10° N
Cosmos 1408 Rocket 3.9 21:31:13 10° N 21:34:52 59° NNE 21:34:52 59° NNE
Cosmos 2221 3.3 21:41:54 44° NNE 21:41:54 44° NNE 21:44:54 10° NNE
ARIANE 5 R/B 3.1 21:41:36 55° W 21:41:36 55° W 21:45:53 10° NNW
Cosmos 1862 4.4 21:38:50 10° N 21:41:30 40° N 21:41:30 40° N
Meteor 2-15 Rocket 4.3 21:43:55 68° SSE 21:44:43 82° E 21:50:49 10° N
Cosmos 1943 3.9 21:44:41 10° NNW 21:49:59 40° ENE 21:50:06 40° ENE
Cosmos 1745 Rocket 4.3 21:47:16 10° N 21:53:23 50° ENE 21:53:25 50° ENE
Cosmos 44 Rocket 4.5 21:53:28 10° WSW 21:58:19 43° NW 22:03:18 10° NNE
Cosmos 1741 Rocket 4.1 22:05:12 73° NW 22:05:12 73° NW 22:10:16 10° NNE
S3M 4.1 22:05:25 61° ENE 22:05:25 61° ENE 22:11:25 10° NNE
BREEZE-M DEB (TANK) 3.9 22:00:13 10° WNW 22:06:19 52° NW 22:06:19 52° NW
Cosmos 1850 Rocket 4.2 22:08:07 67° WNW 22:08:07 67° WNW 22:13:13 10° NNE
Cosmos 2263 Rocket 2.5 22:16:15 58° NNE 22:16:15 58° NNE 22:20:43 10° NNE
Aureole 1 Rocket 3.8 22:17:34 65° NNW 22:17:34 65° NNW 22:21:45 10° NNE
SL-08 R/B 4.5 22:16:03 10° NNW 22:22:14 71° W 22:22:24 71° WSW
Cosmos 1386 Rocket 4.4 22:16:46 10° N 22:22:22 75° NNE 22:22:22 75° NNE
USA 229 DEB 3.8 22:18:53 10° NW 22:26:17 82° NE 22:27:01 74° ESE
USA 229 3.8 22:18:59 10° NW 22:26:23 82° NE 22:27:08 73° ESE
Lacrosse 5 rocket 3.2 22:22:35 10° NNW 22:25:34 30° N 22:25:34 30° N
Cosmos 1553 Rocket 4.3 22:33:03 55° W 22:33:27 57° WNW 22:39:28 10° N
Cosmos 841 Rocket 4.3 22:32:27 10° NNW 22:36:20 48° NW 22:36:20 48° NW
Cosmos 1603 4.1 22:33:08 10° NNW 22:37:52 62° NW 22:37:52 62° NW
Terra 3.4 22:42:44 29° WNW 22:42:44 29° WNW 22:45:58 10° NNW
NOSS 3-1 (A) 4.0 22:36:39 10° NW 22:44:19 87° WSW 22:45:03 77° SSE
USA 215 4.2 23:08:55 34° W 23:08:55 34° W 23:13:22 10° WNW
SL-4 R/B 4.2 23:05:37 10° WNW 23:09:09 28° NNW 23:09:09 28° NNW
Cosmos 2315 Rocket 4.3 23:16:01 65° NNW 23:16:01 65° NNW 23:21:32 10° N
ATLAS 5 CENTAUR R/B 4.4 23:20:16 10° NNW 23:24:12 20° NE 23:27:06 15° ENE
SeaSat 1 3.8 23:27:44 10° NNE 23:31:05 36° NNW 23:31:05 36° NNW
Cosmos 2074 Rocket 4.4 23:36:09 10° N 23:41:12 59° NNE 23:41:12 59° NNE
USA 281 4.0 23:43:09 41° ENE 23:43:44 41° NE 23:49:48 10° NNW
